Starlink 31947

operational
NORAD ID: 59835 Int'l Des: 2024-097 Owner: SPXS Country: US Constellation: starlink
LEOCIRCULAR

About Starlink 31947

Description loading...

Live Position

Loading 3D Globe...

Upcoming Passes

Altitude History

Altitude vs Time

uPlot chart will show altitude changes over time

Two-Line Element Set

1 59835U 24097A 25259.13585261 .00005465 00000-0 20784-3 0 9990
2 59835 42.9922 179.9231 0001166 263.6657 96.4062 15.27600003 75228
Epoch: Sep 16, 2025 • Age: 11 hours

Current Status

Altitude 485.8 km
Velocity 7.63 km/s
Sub-Earth Point 38.46°N, 82.34°E
Launch Date May 23, 2024
Age 1.3 years
Type internet

Technical Details

Classification Payload
Mass 730.00 kg
Dry Mass 700.00 kg
Total Mass 730.00 kg
Length 0.30 m
Diameter 4.10 m
Span 29.00 m
Shape Box + pan
Manufacturer SPXS
Bus Type Starlink V2M
Phase Status In Orbit
Owner/State SPXS/US

Large Constellations

Loading constellations...